TimeCST,TemperatureF,Dew PointF,Humidity,Sea Level PressureIn,VisibilityMPH,Wind Direction,Wind SpeedMPH,Gust SpeedMPH,PrecipitationIn,Events,Conditions,WindDirDegrees,DateUTC
12:15 AM,66.2,55.4,68,30.18,10.0,ENE,12.7,-,N/A,,Clear,60,2013-01-22 06:15:00
12:35 AM,66.2,55.4,68,30.18,10.0,ENE,12.7,-,N/A,,Clear,60,2013-01-22 06:35:00
12:55 AM,66.2,55.4,68,30.18,10.0,ENE,12.7,-,N/A,,Clear,60,2013-01-22 06:55:00
1:15 AM,66.2,55.4,68,30.17,10.0,ENE,15.0,-,N/A,,Clear,70,2013-01-22 07:15:00
1:35 AM,66.2,55.4,68,30.16,10.0,ENE,15.0,-,N/A,,Clear,70,2013-01-22 07:35:00
1:55 AM,66.2,55.4,68,30.16,10.0,ENE,15.0,-,N/A,,Clear,70,2013-01-22 07:55:00
2:15 AM,66.2,55.4,68,30.17,10.0,ENE,13.8,-,N/A,,Clear,70,2013-01-22 08:15:00
2:35 AM,66.2,55.4,68,30.17,10.0,ENE,12.7,-,N/A,,Clear,70,2013-01-22 08:35:00
2:55 AM,66.2,55.4,68,30.17,10.0,ENE,15.0,-,N/A,,Clear,70,2013-01-22 08:55:00
3:15 AM,66.2,55.4,68,30.17,10.0,East,12.7,-,N/A,,Clear,80,2013-01-22 09:15:00
3:35 AM,66.2,55.4,68,30.17,10.0,East,12.7,-,N/A,,Clear,80,2013-01-22 09:35:00
3:55 AM,66.2,55.4,68,30.18,10.0,East,12.7,-,N/A,,Clear,80,2013-01-22 09:55:00
4:15 AM,66.2,55.4,68,30.18,10.0,ENE,13.8,-,N/A,,Clear,70,2013-01-22 10:15:00
4:35 AM,66.2,55.4,68,30.18,10.0,ENE,11.5,-,N/A,,Clear,70,2013-01-22 10:35:00
4:55 AM,66.2,55.4,68,30.18,10.0,ENE,12.7,-,N/A,,Clear,70,2013-01-22 10:55:00
5:15 AM,66.2,55.4,68,30.19,10.0,ENE,11.5,-,N/A,,Clear,70,2013-01-22 11:15:00
5:35 AM,66.2,53.6,64,30.19,10.0,ENE,10.4,-,N/A,,Clear,70,2013-01-22 11:35:00
5:55 AM,66.2,53.6,64,30.20,10.0,ENE,11.5,-,N/A,,Clear,70,2013-01-22 11:55:00
6:15 AM,66.2,53.6,64,30.21,10.0,ENE,10.4,-,N/A,,Clear,70,2013-01-22 12:15:00
6:35 AM,66.2,55.4,68,30.22,10.0,ENE,9.2,-,N/A,,Clear,60,2013-01-22 12:35:00
6:55 AM,66.2,53.6,64,30.22,10.0,ENE,10.4,-,N/A,,Clear,70,2013-01-22 12:55:00
7:15 AM,66.2,53.6,64,30.23,10.0,ENE,10.4,-,N/A,,Clear,70,2013-01-22 13:15:00
7:35 AM,66.2,53.6,64,30.24,10.0,ENE,11.5,-,N/A,,Clear,70,2013-01-22 13:35:00
7:55 AM,66.2,53.6,64,30.24,10.0,ENE,11.5,-,N/A,,Clear,60,2013-01-22 13:55:00
8:15 AM,66.2,53.6,64,30.25,10.0,ENE,12.7,-,N/A,,Clear,60,2013-01-22 14:15:00
8:35 AM,66.2,53.6,64,30.25,10.0,ENE,12.7,-,N/A,,Clear,60,2013-01-22 14:35:00
8:55 AM,66.2,53.6,64,30.26,10.0,ENE,12.7,-,N/A,,Clear,60,2013-01-22 14:55:00
9:15 AM,66.2,53.6,64,30.26,10.0,ENE,11.5,-,N/A,,Clear,60,2013-01-22 15:15:00
9:35 AM,66.2,53.6,64,30.27,10.0,ENE,10.4,-,N/A,,Clear,60,2013-01-22 15:35:00
9:55 AM,66.2,53.6,64,30.28,10.0,ENE,11.5,-,N/A,,Clear,60,2013-01-22 15:55:00
10:15 AM,68.0,53.6,60,30.28,10.0,NE,11.5,-,N/A,,Clear,50,2013-01-22 16:15:00
10:35 AM,68.0,53.6,60,30.29,10.0,NE,11.5,-,N/A,,Clear,50,2013-01-22 16:35:00
10:55 AM,68.0,53.6,60,30.28,10.0,NE,12.7,-,N/A,,Clear,50,2013-01-22 16:55:00
11:15 AM,68.0,53.6,60,30.28,10.0,NE,13.8,-,N/A,,Clear,50,2013-01-22 17:15:00
11:55 AM,66.2,53.6,64,30.26,10.0,ENE,12.7,-,N/A,,Clear,60,2013-01-22 17:55:00
12:15 PM,66.2,55.4,68,30.26,10.0,NE,12.7,-,N/A,,Clear,50,2013-01-22 18:15:00
12:35 PM,66.2,55.4,68,30.25,10.0,ENE,12.7,-,N/A,,Clear,60,2013-01-22 18:35:00
12:55 PM,68.0,55.4,64,30.24,10.0,ENE,12.7,-,N/A,,Clear,60,2013-01-22 18:55:00
1:15 PM,68.0,55.4,64,30.23,10.0,ENE,12.7,-,N/A,,Clear,60,2013-01-22 19:15:00
1:35 PM,66.2,55.4,68,30.22,10.0,NE,13.8,-,N/A,,Clear,50,2013-01-22 19:35:00
1:55 PM,66.2,55.4,68,30.21,10.0,NE,13.8,-,N/A,,Clear,50,2013-01-22 19:55:00
2:15 PM,66.2,55.4,68,30.21,10.0,NE,15.0,-,N/A,,Clear,50,2013-01-22 20:15:00
2:35 PM,66.2,55.4,68,30.21,10.0,ENE,13.8,-,N/A,,Clear,60,2013-01-22 20:35:00
2:55 PM,66.2,55.4,68,30.20,10.0,NE,12.7,-,N/A,,Clear,50,2013-01-22 20:55:00
3:15 PM,66.2,55.4,68,30.20,10.0,ENE,11.5,-,N/A,,Clear,60,2013-01-22 21:15:00
3:35 PM,68.0,55.4,64,30.20,10.0,ENE,12.7,-,N/A,,Clear,60,2013-01-22 21:35:00
3:55 PM,66.2,55.4,68,30.20,10.0,NE,13.8,-,N/A,,Clear,50,2013-01-22 21:55:00
4:15 PM,66.2,57.2,73,30.20,10.0,NE,12.7,-,N/A,,Clear,50,2013-01-22 22:15:00
4:35 PM,66.2,57.2,73,30.21,10.0,ENE,10.4,-,N/A,,Clear,60,2013-01-22 22:35:00
4:55 PM,66.2,57.2,73,30.21,10.0,ENE,11.5,-,N/A,,Clear,60,2013-01-22 22:55:00
5:15 PM,66.2,57.2,73,30.21,10.0,ENE,12.7,-,N/A,,Clear,60,2013-01-22 23:15:00
5:35 PM,66.2,57.2,73,30.21,10.0,ENE,12.7,-,N/A,,Clear,60,2013-01-22 23:35:00
5:55 PM,66.2,57.2,73,30.20,10.0,ENE,13.8,-,N/A,,Clear,60,2013-01-22 23:55:00
6:15 PM,66.2,57.2,73,30.20,10.0,ENE,15.0,-,N/A,,Clear,70,2013-01-23 00:15:00
6:35 PM,66.2,57.2,73,30.20,10.0,ENE,15.0,-,N/A,,Clear,60,2013-01-23 00:35:00
6:55 PM,66.2,57.2,73,30.20,10.0,ENE,15.0,-,N/A,,Clear,70,2013-01-23 00:55:00
7:15 PM,66.2,57.2,73,30.21,10.0,ENE,16.1,-,N/A,,Clear,60,2013-01-23 01:15:00
7:35 PM,66.2,57.2,73,30.21,10.0,ENE,16.1,-,N/A,,Partly Cloudy,60,2013-01-23 01:35:00
7:55 PM,66.2,59.0,78,30.22,10.0,ENE,13.8,-,N/A,,Scattered Clouds,60,2013-01-23 01:55:00
9:35 PM,66.2,59.0,78,30.25,10.0,East,8.1,-,N/A,,Clear,80,2013-01-23 03:35:00
9:55 PM,66.2,59.0,78,30.25,10.0,East,9.2,-,N/A,,Scattered Clouds,100,2013-01-23 03:55:00
10:15 PM,66.2,59.0,78,30.25,10.0,East,9.2,-,N/A,,Scattered Clouds,100,2013-01-23 04:15:00
10:35 PM,66.2,59.0,78,30.25,10.0,East,9.2,-,N/A,,Clear,90,2013-01-23 04:35:00
10:55 PM,66.2,60.8,83,30.25,10.0,ESE,11.5,-,N/A,,Clear,110,2013-01-23 04:55:00
11:15 PM,66.2,60.8,83,30.25,10.0,East,12.7,-,N/A,,Clear,100,2013-01-23 05:15:00
11:35 PM,68.0,60.8,78,30.25,10.0,East,11.5,-,N/A,,Clear,90,2013-01-23 05:35:00
11:55 PM,68.0,60.8,78,30.25,10.0,East,11.5,-,N/A,,Clear,100,2013-01-23 05:55:00